Погода в Глядянском

Россия / Курганская область     54°54′31″N   65°05′25″E
темп.,
°C
ветер,
м/с
пор.,
м/с
влажн.,
%
обл.,
%
осадки,
мм/ч
давл.,
гПа
погр.,
м
2 июля, сб
сб223:00+11с229053 0.0 101320
02:00+10сз2291100 0.0 101323
05:00+11сз2488100 0.0 101396
08:00+15сз3468100 0.0 1012381
11:00+18с355899 0.0 10121163
14:00+19с34555 0.0 10121350
17:00+19ссв3453100 0.0 10111538
20:00+16св117360 0.1 101112
3 июля, вс
вс323:00+12зсз228288 0.1 101211
02:00+11зсз11865 0.0 101111
05:00+11зсз118345 0.0 101114
08:00+16зюз226937 0.0 1011295
11:00+20з225491 0.0 1010992
14:00+23юв014511 0.0 10081962
17:00+21ю1158100 0.0 100713
20:00+18з1166100 0.0 100613
4 июля, пн
пн423:00+17св1163100 0.0 100511
02:00+16св2271100 0.0 100428
05:00+14ссв4692100 1.0 1003155
08:00+13ссв5996100 0.6 1003280
11:00+15ссв81089100 0.9 1003536
14:00+14ссв91289100 0.1 1003757
17:00+13ссв81393100 0.5 1003578
20:00+13ссв81391100 0.1 1004700
5 июля, вт
вт523:00+12ссв71388100 0.1 1005707
02:00+12ссв81384100 0.0 1005668
05:00+11ссв7138685 0.0 1006572
08:00+13ссв71278100 0.0 1007758
11:00+17ссв9116096 0.0 10081325
14:00+17ссв796193 0.0 10081605
17:00+17ссв5862100 0.0 10101242
20:00+16с51067100 0.0 1011441
6 июля, ср
ср623:00+14с496869 0.0 1011231
02:00+10с33825 0.0 101238
05:00+11с227684 0.0 101335
08:00+15с356899 0.0 1013234
11:00+19ссв34505 0.0 10131406
14:00+21ссв344137 0.0 10132215
17:00+20ссз3461100 0.0 1013521
20:00+17ссз1170100 0.1 101416